Location: Killam
(52.7910°N, 111.8608°W)
Time: 16:18:10
(UTC+00:00)

Vanguard 2 Rocket - Pass Details

Date: 24 February 2026
Orbit: 553 x 3286 km, 32.9° (Epoch: 11 March)

Event Time Altitude Azimuth Distance (km) Brightness Sun altitude
Rises 15:25:00 0° 183° (S) 6,734 11.7 7.7°
Reaches altitude 10° 15:32:31 10° 164° (SSE) 6,059 11.9 8.7°
Maximum altitude 15:41:32 15° 136° (SE) 5,770 12.8 9.9°
Drops below altitude 10° 15:50:33 10° 109° (ESE) 6,129 13.2 11.1°
Sets 15:58:06 0° 90° (E) 6,862 12.4 12.0°
